| time (UTC) | temp F | wind direction | speed knots | gust knots | rain 1hr in | rain 24hr in | rain mn in | humidity % | barometer mb |
| 20260507155557 | 62 | 219 | 4.3 | 13.9 | 0.00 | 0.00 | 0.00 | 46 | 1018.5 |
| 20260507155452 | 62 | 246 | 3.5 | 13.9 | 0.00 | 0.00 | 0.00 | 45 | 1018.5 |
| 20260507155306 | 62 | 246 | 3.5 | 13.9 | 0.00 | 0.00 | 0.00 | 45 | 1018.5 |
| 20260507154555 | 62 | 339 | 1.7 | 13.9 | 0.00 | 0.00 | 0.00 | 47 | 1018.6 |
| 20260507154056 | 62 | 319 | 3.5 | 12.2 | 0.00 | 0.00 | 0.00 | 47 | 1018.5 |
| 20260507153954 | 62 | 206 | 2.6 | 12.2 | 0.00 | 0.00 | 0.00 | 49 | 1018.8 |
| 20260507153806 | 62 | 206 | 2.6 | 12.2 | 0.00 | 0.00 | 0.00 | 49 | 1018.8 |
| 20260507153055 | 61 | 298 | 2.6 | 12.2 | 0.00 | 0.00 | 0.00 | 47 | 1018.9 |
| 20260507152555 | 61 | 199 | 1.7 | 14.8 | 0.00 | 0.00 | 0.00 | 51 | 1018.7 |
| 20260507152056 | 61 | 185 | 6.1 | 14.8 | 0.00 | 0.00 | 0.00 | 48 | 1019.1 |
| 20260507151946 | 61 | 187 | 5.2 | 10.4 | 0.00 | 0.00 | 0.00 | 48 | 1019.1 |
| 20260507151806 | 61 | 187 | 5.2 | 10.4 | 0.00 | 0.00 | 0.00 | 48 | 1019.1 |
| 20260507151304 | 61 | 183 | 4.3 | 9.6 | 0.00 | 0.00 | 0.00 | 48 | 1019.3 |
| 20260507151244 | 60 | 155 | 2.6 | 11.3 | 0.00 | 0.00 | 0.00 | 52 | 1019.3 |
| 20260507151151 | 61 | 248 | 7.8 | 10.4 | 0.00 | 0.00 | 0.00 | 47 | 1019.1 |
| 20260507150734 | 61 | 183 | 4.3 | 9.6 | 0.00 | 0.00 | 0.00 | 48 | 1019.3 |
| 20260507145556 | 60 | 195 | 4.3 | 11.3 | 0.00 | 0.00 | 0.00 | 52 | 1019.3 |
| 20260507145054 | 60 | 205 | 2.6 | 9.6 | 0.00 | 0.00 | 0.00 | 52 | 1019.4 |
| 20260507144555 | 60 | 217 | 2.6 | 9.6 | 0.00 | 0.00 | 0.00 | 52 | 1019.4 |
| 20260507144055 | 60 | 222 | 0.0 | 9.6 | 0.00 | 0.00 | 0.00 | 54 | 1019.5 |
| 20260507143947 | 59 | 185 | 6.1 | 9.6 | 0.00 | 0.00 | 0.00 | 53 | 1019.4 |
| 20260507143805 | 59 | 185 | 6.1 | 9.6 | 0.00 | 0.00 | 0.00 | 53 | 1019.4 |
| 20260507143054 | 59 | 181 | 4.3 | 8.7 | 0.00 | 0.00 | 0.00 | 55 | 1019.4 |
| 20260507142555 | 58 | 267 | 4.3 | 8.7 | 0.00 | 0.00 | 0.00 | 55 | 1019.6 |
| 20260507142054 | 60 | 204 | 1.7 | 7.0 | 0.00 | 0.00 | 0.00 | 54 | 1019.5 |
| 20260507141554 | 59 | 224 | 3.5 | 7.8 | 0.00 | 0.00 | 0.00 | 54 | 1019.7 |
| 20260507141539 | 58 | 278 | 2.6 | 7.8 | 0.00 | 0.00 | 0.00 | 58 | 1019.7 |
| 20260507141306 | 58 | 278 | 2.6 | 7.8 | 0.00 | 0.00 | 0.00 | 58 | 1019.7 |
| 20260507140954 | 58 | 177 | 0.9 | 6.1 | 0.00 | 0.00 | 0.00 | 58 | 1019.6 |
| 20260507140807 | 58 | 177 | 0.9 | 6.1 | 0.00 | 0.00 | 0.00 | 58 | 1019.6 |
| 20260507140106 | 58 | 244 | 4.3 | 6.1 | 0.00 | 0.00 | 0.00 | 58 | 1019.9 |
| 20260507135556 | 58 | 262 | 1.7 | 5.2 | 0.00 | 0.00 | 0.00 | 62 | 1019.9 |
| 20260507135054 | 57 | 249 | 4.3 | 6.1 | 0.00 | 0.00 | 0.00 | 60 | 1019.8 |
| 20260507134554 | 56 | 222 | 3.5 | 6.1 | 0.00 | 0.00 | 0.00 | 63 | 1019.9 |
| 20260507134113 | 56 | 228 | 4.3 | 6.1 | 0.00 | 0.00 | 0.00 | 64 | 1019.8 |
| 20260507133554 | 56 | 243 | 3.5 | 5.2 | 0.00 | 0.00 | 0.00 | 63 | 1019.6 |
| 20260507133054 | 56 | 150 | 0.9 | 3.5 | 0.00 | 0.00 | 0.00 | 67 | 1019.7 |
| 20260507132555 | 55 | 2 | 1.7 | 2.6 | 0.00 | 0.00 | 0.00 | 67 | 1019.6 |
| 20260507132054 | 55 | 265 | 0.0 | 2.6 | 0.00 | 0.00 | 0.00 | 69 | 1019.8 |
| 20260507131554 | 55 | 4 | 1.7 | 1.7 | 0.00 | 0.00 | 0.00 | 71 | 1019.7 |
| 20260507131453 | 54 | 260 | 0.0 | 4.3 | 0.00 | 0.00 | 0.00 | 73 | 1019.5 |
| 20260507131100 | 54 | 260 | 0.0 | 4.3 | 0.00 | 0.00 | 0.00 | 73 | 1019.5 |
| 20260507130607 | 52 | 142 | 0.0 | 4.3 | 0.00 | 0.00 | 0.00 | 75 | 1019.7 |
| 20260507130108 | 51 | 249 | 0.0 | 2.6 | 0.00 | 0.00 | 0.00 | 75 | 1019.6 |
| 20260507125941 | 51 | 147 | 0.0 | 3.5 | 0.00 | 0.00 | 0.00 | 77 | 1019.4 |
| 20260507125554 | 51 | 147 | 0.0 | 3.5 | 0.00 | 0.00 | 0.00 | 77 | 1019.4 |
| 20260507125055 | 50 | 241 | 0.9 | 3.5 | 0.00 | 0.00 | 0.00 | 77 | 1019.5 |
| 20260507124555 | 50 | 247 | 1.7 | 3.5 | 0.00 | 0.00 | 0.00 | 77 | 1019.4 |
| 20260507124055 | 50 | 217 | 0.0 | 1.7 | 0.00 | 0.00 | 0.00 | 79 | 1019.4 |
| 20260507123555 | 50 | 152 | 0.9 | 1.7 | 0.00 | 0.00 | 0.00 | 78 | 1019.3 |
| 20260507123055 | 49 | 133 | 1.7 | 1.7 | 0.00 | 0.00 | 0.00 | 79 | 1019.2 |
| 20260507122555 | 48 | 204 | 1.7 | 1.7 | 0.00 | 0.00 | 0.00 | 80 | 1019.3 |
| 20260507122451 | 48 | 172 | 0.0 | 1.7 | 0.00 | 0.00 | 0.00 | 82 | 1019.3 |
| 20260507122307 | 48 | 172 | 0.0 | 1.7 | 0.00 | 0.00 | 0.00 | 82 | 1019.3 |
| 20260507121556 | 47 | 146 | 1.7 | 1.7 | 0.00 | 0.00 | 0.00 | 83 | 1019.1 |
| 20260507121057 | 46 | 129 | 0.0 | 1.7 | 0.00 | 0.00 | 0.00 | 84 | 1019.1 |
| 20260507121044 | 46 | 165 | 0.9 | 1.7 | 0.00 | 0.00 | 0.00 | 85 | 1019.1 |
| 20260507120807 | 46 | 165 | 0.9 | 1.7 | 0.00 | 0.00 | 0.00 | 85 | 1019.1 |
| 20260507120109 | 45 | 193 | 0.9 | 1.7 | 0.00 | 0.00 | 0.00 | 86 | 1018.9 |
| 20260507115554 | 45 | 129 | 0.0 | 1.7 | 0.00 | 0.00 | 0.00 | 87 | 1018.8 |
| 20260507115051 | 44 | 143 | 0.0 | 1.7 | 0.00 | 0.00 | 0.00 | 87 | 1018.9 |
| 20260507114554 | 44 | 162 | 1.7 | 1.7 | 0.00 | 0.00 | 0.00 | 87 | 1018.7 |
| 20260507114052 | 44 | 215 | 0.9 | 1.7 | 0.00 | 0.00 | 0.00 | 88 | 1018.8 |
| 20260507113551 | 44 | 238 | 1.7 | 1.7 | 0.00 | 0.00 | 0.00 | 88 | 1018.8 |
| 20260507113524 | 44 | 207 | 1.7 | 1.7 | 0.00 | 0.00 | 0.00 | 87 | 1018.6 |
| 20260507113301 | 44 | 207 | 1.7 | 1.7 | 0.00 | 0.00 | 0.00 | 87 | 1018.6 |
| 20260507112550 | 44 | 147 | 0.0 | 1.7 | 0.00 | 0.00 | 0.00 | 87 | 1018.8 |
| 20260507112051 | 44 | 111 | 0.0 | 1.7 | 0.00 | 0.00 | 0.00 | 87 | 1018.8 |
| 20260507111953 | 44 | 139 | 0.0 | 1.7 | 0.00 | 0.00 | 0.00 | 87 | 1018.7 |
| 20260507111803 | 44 | 139 | 0.0 | 1.7 | 0.00 | 0.00 | 0.00 | 87 | 1018.7 |
| 20260507111051 | 44 | 209 | 0.0 | 1.7 | 0.00 | 0.00 | 0.00 | 87 | 1019.1 |
| 20260507111035 | 44 | 113 | 0.0 | 1.7 | 0.00 | 0.00 | 0.00 | 86 | 1018.7 |
| 20260507110754 | 44 | 113 | 0.0 | 1.7 | 0.00 | 0.00 | 0.00 | 86 | 1018.7 |
| 20260507110058 | 44 | 177 | 0.9 | 1.7 | 0.00 | 0.00 | 0.00 | 86 | 1018.5 |
| 20260507105543 | 44 | 141 | 0.9 | 1.7 | 0.00 | 0.00 | 0.00 | 86 | 1018.6 |
| 20260507105443 | 44 | 130 | 0.0 | 1.7 | 0.00 | 0.00 | 0.00 | 86 | 1018.6 |
| 20260507105042 | 44 | 130 | 0.0 | 1.7 | 0.00 | 0.00 | 0.00 | 86 | 1018.6 |
| 20260507104543 | 44 | 141 | 0.9 | 1.7 | 0.00 | 0.00 | 0.00 | 86 | 1018.8 |
| 20260507104444 | 45 | 129 | 0.0 | 1.7 | 0.00 | 0.00 | 0.00 | 85 | 1018.6 |
| 20260507104044 | 45 | 129 | 0.0 | 1.7 | 0.00 | 0.00 | 0.00 | 85 | 1018.6 |
| 20260507103542 | 44 | 13 | 0.0 | 1.7 | 0.00 | 0.00 | 0.00 | 87 | 1018.5 |
| 20260507103043 | 44 | 157 | 0.0 | 1.7 | 0.00 | 0.00 | 0.00 | 87 | 1018.3 |
| 20260507102542 | 44 | 171 | 0.9 | 2.6 | 0.00 | 0.00 | 0.00 | 87 | 1018.5 |
| 20260507102042 | 44 | 124 | 0.0 | 2.6 | 0.00 | 0.00 | 0.00 | 87 | 1018.2 |
| 20260507101544 | 44 | 209 | 1.7 | 2.6 | 0.00 | 0.00 | 0.00 | 88 | 1018.4 |
| 20260507101042 | 44 | 217 | 0.0 | 2.6 | 0.00 | 0.00 | 0.00 | 88 | 1018.5 |
| 20260507100542 | 43 | 156 | 0.9 | 1.7 | 0.00 | 0.00 | 0.00 | 87 | 1018.2 |
| 20260507100042 | 44 | 133 | 0.0 | 1.7 | 0.00 | 0.00 | 0.00 | 87 | 1018.3 |
| 20260507095544 | 44 | 140 | 0.0 | 1.7 | 0.00 | 0.00 | 0.00 | 87 | 1018.3 |
| 20260507095042 | 44 | 180 | 0.0 | 1.7 | 0.00 | 0.00 | 0.00 | 87 | 1018.3 |
| 20260507094543 | 44 | 147 | 0.0 | 1.7 | 0.00 | 0.00 | 0.00 | 87 | 1018.2 |
| 20260507094042 | 44 | 124 | 0.0 | 1.7 | 0.00 | 0.00 | 0.00 | 86 | 1018.4 |
| 20260507093612 | 44 | 271 | 0.0 | 1.7 | 0.00 | 0.00 | 0.00 | 86 | 1018.6 |
| 20260507093043 | 44 | 240 | 0.0 | 1.7 | 0.00 | 0.00 | 0.00 | 86 | 1018.2 |
| 20260507092542 | 44 | 32 | 0.0 | 1.7 | 0.00 | 0.00 | 0.00 | 86 | 1018.2 |
| 20260507092035 | 43 | 219 | 0.0 | 2.6 | 0.00 | 0.00 | 0.00 | 88 | 1018.2 |
| 20260507091536 | 43 | 124 | 0.9 | 2.6 | 0.00 | 0.00 | 0.00 | 88 | 1018.2 |
| 20260507091037 | 43 | 3 | 1.7 | 1.7 | 0.00 | 0.00 | 0.00 | 91 | 1018.1 |
| 20260507090554 | 42 | 135 | 0.0 | 2.6 | 0.00 | 0.00 | 0.00 | 91 | 1017.8 |
| 20260507090037 | 42 | 221 | 1.7 | 2.6 | 0.00 | 0.00 | 0.00 | 91 | 1018.2 |
| 20260507085536 | 42 | 132 | 1.7 | 1.7 | 0.00 | 0.00 | 0.00 | 91 | 1018.0 |
| 20260507085425 | 42 | 74 | 0.9 | 1.7 | 0.00 | 0.00 | 0.00 | 91 | 1018.1 |
| 20260507085249 | 42 | 74 | 0.9 | 1.7 | 0.00 | 0.00 | 0.00 | 91 | 1018.1 |
| 20260507084538 | 42 | 50 | 0.0 | 2.6 | 0.00 | 0.00 | 0.00 | 91 | 1018.1 |
| 20260507084035 | 42 | 193 | 0.0 | 2.6 | 0.00 | 0.00 | 0.00 | 91 | 1017.9 |
| 20260507083822 | 42 | 124 | 0.0 | 0.9 | 0.00 | 0.00 | 0.00 | 90 | 1018.3 |
| 20260507083812 | 42 | 150 | 1.7 | 1.7 | 0.00 | 0.00 | 0.00 | 90 | 1018.1 |
| 20260507083656 | 42 | 143 | 1.7 | 1.7 | 0.00 | 0.00 | 0.00 | 91 | 1018.0 |
| 20260507083210 | 42 | 150 | 1.7 | 1.7 | 0.00 | 0.00 | 0.00 | 90 | 1018.1 |
| 20260507082747 | 42 | 124 | 0.0 | 0.9 | 0.00 | 0.00 | 0.00 | 90 | 1018.3 |
| 20260507082036 | 42 | 49 | 0.0 | 1.7 | 0.00 | 0.00 | 0.00 | 90 | 1018.1 |
| 20260507081936 | 42 | 129 | 0.0 | 1.7 | 0.00 | 0.00 | 0.00 | 89 | 1018.0 |
| 20260507081748 | 42 | 129 | 0.0 | 1.7 | 0.00 | 0.00 | 0.00 | 89 | 1018.0 |
| 20260507081048 | 42 | 67 | 0.0 | 1.7 | 0.00 | 0.00 | 0.00 | 89 | 1018.2 |
| 20260507080946 | 42 | 123 | 1.7 | 1.7 | 0.00 | 0.00 | 0.00 | 89 | 1018.1 |
| 20260507080546 | 42 | 123 | 1.7 | 1.7 | 0.00 | 0.00 | 0.00 | 89 | 1018.1 |
| 20260507080426 | 42 | 118 | 0.9 | 1.7 | 0.00 | 0.00 | 0.00 | 89 | 1018.2 |
| 20260507080245 | 42 | 118 | 0.9 | 1.7 | 0.00 | 0.00 | 0.00 | 89 | 1018.2 |
| 20260507075535 | 43 | 131 | 0.0 | 1.7 | 0.00 | 0.00 | 0.00 | 89 | 1018.4 |
| 20260507075039 | 43 | 212 | 0.0 | 0.9 | 0.00 | 0.00 | 0.00 | 88 | 1018.3 |
| 20260507074925 | 43 | 142 | 0.0 | 1.7 | 0.00 | 0.00 | 0.00 | 88 | 1018.5 |
| 20260507074746 | 43 | 142 | 0.0 | 1.7 | 0.00 | 0.00 | 0.00 | 88 | 1018.5 |
| 20260507074036 | 43 | 89 | 0.0 | 1.7 | 0.00 | 0.00 | 0.00 | 88 | 1018.4 |
| 20260507073536 | 43 | 125 | 0.9 | 1.7 | 0.00 | 0.00 | 0.00 | 87 | 1018.5 |
| 20260507073038 | 44 | 159 | 0.9 | 1.7 | 0.00 | 0.00 | 0.00 | 87 | 1018.5 |
| 20260507072537 | 43 | 160 | 0.0 | 1.7 | 0.00 | 0.00 | 0.00 | 86 | 1018.3 |
| 20260507072035 | 44 | 132 | 0.9 | 1.7 | 0.00 | 0.00 | 0.00 | 86 | 1018.1 |
| 20260507071923 | 44 | 129 | 0.0 | 1.7 | 0.00 | 0.00 | 0.00 | 85 | 1018.4 |
| 20260507071535 | 44 | 129 | 0.0 | 1.7 | 0.00 | 0.00 | 0.00 | 85 | 1018.4 |
| 20260507071039 | 44 | 162 | 1.7 | 2.6 | 0.00 | 0.00 | 0.00 | 84 | 1018.1 |
| 20260507070955 | 45 | 153 | 0.0 | 2.6 | 0.00 | 0.00 | 0.00 | 83 | 1018.2 |
| 20260507070542 | 45 | 143 | 0.9 | 2.6 | 0.00 | 0.00 | 0.00 | 84 | 1018.0 |
| 20260507070048 | 45 | 153 | 0.0 | 2.6 | 0.00 | 0.00 | 0.00 | 83 | 1018.2 |
| 20260507065933 | 45 | 161 | 1.7 | 2.6 | 0.00 | 0.00 | 0.00 | 83 | 1018.2 |
| 20260507065748 | 45 | 161 | 1.7 | 2.6 | 0.00 | 0.00 | 0.00 | 83 | 1018.2 |
| 20260507065036 | 45 | 176 | 1.7 | 2.6 | 0.00 | 0.00 | 0.00 | 82 | 1018.2 |
| 20260507064749 | 45 | 185 | 2.6 | 2.6 | 0.00 | 0.00 | 0.00 | 83 | 1018.4 |
| 20260507064611 | 45 | 178 | 1.7 | 2.6 | 0.00 | 0.00 | 0.00 | 82 | 1018.4 |
| 20260507064205 | 45 | 179 | 1.7 | 2.6 | 0.00 | 0.00 | 0.00 | 84 | 1018.6 |
| 20260507063534 | 45 | 185 | 2.6 | 2.6 | 0.00 | 0.00 | 0.00 | 83 | 1018.4 |
| 20260507063035 | 45 | 176 | 0.9 | 1.7 | 0.00 | 0.00 | 0.00 | 82 | 1018.9 |
| 20260507062533 | 45 | 138 | 0.9 | 1.7 | 0.00 | 0.00 | 0.00 | 82 | 1018.6 |
| 20260507062036 | 46 | 129 | 0.0 | 1.7 | 0.00 | 0.00 | 0.00 | 82 | 1018.9 |
| 20260507061536 | 46 | 190 | 0.9 | 1.7 | 0.00 | 0.00 | 0.00 | 82 | 1018.8 |
| 20260507061440 | 46 | 129 | 0.0 | 0.9 | 0.00 | 0.00 | 0.00 | 82 | 1019.1 |
| 20260507061034 | 46 | 129 | 0.0 | 0.9 | 0.00 | 0.00 | 0.00 | 82 | 1019.1 |
| 20260507060533 | 46 | 209 | 0.0 | 0.9 | 0.00 | 0.00 | 0.00 | 81 | 1018.9 |
| 20260507060035 | 46 | 142 | 0.0 | 1.7 | 0.00 | 0.00 | 0.00 | 80 | 1018.8 |
| 20260507055804 | 47 | 166 | 2.6 | 2.6 | 0.00 | 0.00 | 0.00 | 79 | 1018.9 |
| 20260507055751 | 47 | 156 | 1.7 | 2.6 | 0.00 | 0.00 | 0.00 | 79 | 1018.7 |
| 20260507055644 | 47 | 55 | 0.0 | 1.7 | 0.00 | 0.00 | 0.00 | 80 | 1018.9 |
| 20260507055429 | 47 | 156 | 1.7 | 2.6 | 0.00 | 0.00 | 0.00 | 79 | 1018.7 |
| 20260507054741 | 47 | 166 | 2.6 | 2.6 | 0.00 | 0.00 | 0.00 | 79 | 1018.9 |
| 20260507054428 | 47 | 233 | 1.7 | 1.7 | 0.00 | 0.00 | 0.00 | 79 | 1019.1 |
| 20260507054029 | 47 | 233 | 1.7 | 1.7 | 0.00 | 0.00 | 0.00 | 79 | 1019.1 |
| 20260507053533 | 47 | 180 | 0.9 | 1.7 | 0.00 | 0.00 | 0.00 | 79 | 1019.1 |
| 20260507053521 | 48 | 151 | 0.0 | 1.7 | 0.00 | 0.00 | 0.00 | 78 | 1018.9 |
| 20260507053030 | 48 | 151 | 0.0 | 1.7 | 0.00 | 0.00 | 0.00 | 78 | 1018.9 |
| 20260507052930 | 48 | 217 | 1.7 | 1.7 | 0.00 | 0.00 | 0.00 | 78 | 1018.9 |
| 20260507052741 | 48 | 217 | 1.7 | 1.7 | 0.00 | 0.00 | 0.00 | 78 | 1018.9 |
| 20260507052025 | 48 | 186 | 0.9 | 1.7 | 0.00 | 0.00 | 0.00 | 76 | 1018.6 |
| 20260507051517 | 49 | 142 | 0.0 | 1.7 | 0.00 | 0.00 | 0.00 | 75 | 1018.7 |
| 20260507051026 | 49 | 166 | 0.0 | 1.7 | 0.00 | 0.00 | 0.00 | 74 | 1018.7 |
| 20260507050545 | 49 | 257 | 0.0 | 2.6 | 0.00 | 0.00 | 0.00 | 75 | 1018.6 |
| 20260507050034 | 49 | 29 | 0.0 | 2.6 | 0.00 | 0.00 | 0.00 | 75 | 1018.6 |
| 20260507045515 | 49 | 48 | 0.0 | 0.9 | 0.00 | 0.00 | 0.00 | 76 | 1018.7 |
| 20260507045015 | 49 | 135 | 0.0 | 0.9 | 0.00 | 0.00 | 0.00 | 76 | 1018.4 |
| 20260507044516 | 49 | 154 | 0.0 | 2.6 | 0.00 | 0.00 | 0.00 | 76 | 1018.4 |
| 20260507044425 | 49 | 354 | 0.0 | 2.6 | 0.00 | 0.00 | 0.00 | 76 | 1018.5 |
| 20260507044228 | 49 | 354 | 0.0 | 2.6 | 0.00 | 0.00 | 0.00 | 76 | 1018.5 |
| 20260507043516 | 48 | 1 | 1.7 | 3.5 | 0.00 | 0.00 | 0.00 | 78 | 1017.9 |
| 20260507043015 | 48 | 126 | 1.7 | 3.5 | 0.00 | 0.00 | 0.00 | 79 | 1017.7 |
| 20260507042516 | 48 | 96 | 1.7 | 1.7 | 0.00 | 0.00 | 0.00 | 79 | 1017.6 |
| 20260507042016 | 48 | 135 | 1.7 | 1.7 | 0.00 | 0.00 | 0.00 | 79 | 1017.8 |
| 20260507041517 | 48 | 69 | 0.9 | 2.6 | 0.00 | 0.00 | 0.00 | 80 | 1017.5 |
| 20260507041015 | 48 | 130 | 1.7 | 2.6 | 0.00 | 0.00 | 0.00 | 79 | 1017.6 |
| 20260507040915 | 48 | 123 | 1.7 | 2.6 | 0.00 | 0.00 | 0.00 | 79 | 1017.7 |
| 20260507040516 | 48 | 123 | 1.7 | 2.6 | 0.00 | 0.00 | 0.00 | 79 | 1017.7 |
| 20260507040450 | 51 | 160 | 0.9 | 1.7 | 0.00 | 0.00 | 0.00 | 72 | 1017.6 |
| 20260507040240 | 49 | 125 | 1.7 | 1.7 | 0.00 | 0.00 | 0.00 | 78 | 1017.8 |
| 20260507035516 | 49 | 111 | 1.7 | 2.6 | 0.00 | 0.00 | 0.00 | 77 | 1017.9 |
| 20260507035453 | 50 | 117 | 0.0 | 2.6 | 0.00 | 0.00 | 0.00 | 74 | 1017.9 |
| 20260507035443 | 49 | 151 | 1.7 | 2.6 | 0.00 | 0.00 | 0.00 | 77 | 1017.8 |
| 20260507035240 | 49 | 151 | 1.7 | 2.6 | 0.00 | 0.00 | 0.00 | 77 | 1017.8 |
| 20260507034552 | 49 | 127 | 0.9 | 1.7 | 0.00 | 0.00 | 0.00 | 76 | 1017.9 |
| 20260507034206 | 50 | 86 | 1.7 | 2.6 | 0.00 | 0.00 | 0.00 | 74 | 1017.7 |
| 20260507034111 | 50 | 130 | 0.0 | 1.7 | 0.00 | 0.00 | 0.00 | 76 | 1017.9 |
| 20260507033901 | 50 | 117 | 0.0 | 2.6 | 0.00 | 0.00 | 0.00 | 74 | 1017.9 |
| 20260507033438 | 50 | 86 | 1.7 | 2.6 | 0.00 | 0.00 | 0.00 | 74 | 1017.7 |
| 20260507032728 | 51 | 160 | 0.9 | 1.7 | 0.00 | 0.00 | 0.00 | 72 | 1017.6 |
| 20260507032014 | 51 | 34 | 0.9 | 1.7 | 0.00 | 0.00 | 0.00 | 72 | 1017.7 |
| 20260507031919 | 52 | 93 | 0.0 | 1.7 | 0.00 | 0.00 | 0.00 | 70 | 1017.6 |
| 20260507031514 | 52 | 93 | 0.0 | 1.7 | 0.00 | 0.00 | 0.00 | 70 | 1017.6 |
| 20260507031418 | 52 | 145 | 0.0 | 1.7 | 0.00 | 0.00 | 0.00 | 69 | 1017.4 |
| 20260507031014 | 52 | 145 | 0.0 | 1.7 | 0.00 | 0.00 | 0.00 | 69 | 1017.4 |
| 20260507030915 | 53 | 146 | 0.9 | 2.6 | 0.00 | 0.00 | 0.00 | 68 | 1017.4 |
| 20260507030724 | 53 | 146 | 0.9 | 2.6 | 0.00 | 0.00 | 0.00 | 68 | 1017.4 |
| 20260507030436 | 53 | 135 | 1.7 | 3.5 | 0.00 | 0.00 | 0.00 | 68 | 1017.3 |
| 20260507030235 | 53 | 135 | 1.7 | 3.5 | 0.00 | 0.00 | 0.00 | 68 | 1017.3 |
| 20260507025519 | 54 | 93 | 1.7 | 3.5 | 0.00 | 0.00 | 0.00 | 67 | 1017.3 |
| 20260507025425 | 55 | 63 | 1.7 | 6.1 | 0.00 | 0.00 | 0.00 | 63 | 1017.2 |
| 20260507025406 | 55 | 103 | 1.7 | 6.1 | 0.00 | 0.00 | 0.00 | 64 | 1017.1 |
| 20260507025209 | 54 | 102 | 1.7 | 3.5 | 0.00 | 0.00 | 0.00 | 65 | 1017.4 |
| 20260507024736 | 55 | 103 | 1.7 | 6.1 | 0.00 | 0.00 | 0.00 | 64 | 1017.1 |
| 20260507024221 | 55 | 63 | 1.7 | 6.1 | 0.00 | 0.00 | 0.00 | 63 | 1017.2 |
| 20260507023525 | 55 | 91 | 3.5 | 4.3 | 0.00 | 0.00 | 0.00 | 63 | 1017.1 |
| 20260507023521 | 55 | 108 | 1.7 | 4.3 | 0.00 | 0.00 | 0.00 | 63 | 1017.1 |
| 20260507023442 | 56 | 86 | 2.6 | 6.1 | 0.00 | 0.00 | 0.00 | 62 | 1017.1 |
| 20260507023019 | 56 | 88 | 1.7 | 6.1 | 0.00 | 0.00 | 0.00 | 62 | 1017.1 |
| 20260507022512 | 56 | 75 | 3.5 | 6.1 | 0.00 | 0.00 | 0.00 | 61 | 1017.1 |
| 20260507022507 | 56 | 75 | 4.3 | 6.1 | 0.00 | 0.00 | 0.00 | 61 | 1017.1 |
| 20260507022013 | 56 | 73 | 1.7 | 5.2 | 0.00 | 0.00 | 0.00 | 61 | 1016.9 |
| 20260507022009 | 56 | 57 | 3.5 | 5.2 | 0.00 | 0.00 | 0.00 | 61 | 1016.9 |
| 20260507021514 | 56 | 69 | 3.5 | 6.1 | 0.00 | 0.00 | 0.00 | 61 | 1016.9 |
| 20260507021508 | 56 | 56 | 3.5 | 6.1 | 0.00 | 0.00 | 0.00 | 61 | 1016.9 |
| 20260507021012 | 57 | 70 | 5.2 | 6.1 | 0.00 | 0.00 | 0.00 | 61 | 1017.0 |
| 20260507021008 | 57 | 48 | 5.2 | 6.1 | 0.00 | 0.00 | 0.00 | 61 | 1017.0 |
| 20260507020525 | 57 | 38 | 2.6 | 6.1 | 0.00 | 0.00 | 0.00 | 61 | 1016.8 |
| 20260507020521 | 57 | 72 | 1.7 | 6.1 | 0.00 | 0.00 | 0.00 | 61 | 1016.8 |
| 20260507020432 | 57 | 58 | 3.5 | 6.1 | 0.00 | 0.00 | 0.00 | 61 | 1016.7 |
| 20260507020009 | 57 | 69 | 2.6 | 6.1 | 0.00 | 0.00 | 0.00 | 61 | 1016.7 |
| 20260507015512 | 57 | 78 | 2.6 | 7.8 | 0.00 | 0.00 | 0.00 | 60 | 1016.5 |
| 20260507015508 | 57 | 63 | 2.6 | 7.8 | 0.00 | 0.00 | 0.00 | 60 | 1016.5 |
| 20260507015443 | 58 | 63 | 4.3 | 9.6 | 0.00 | 0.00 | 0.00 | 59 | 1016.5 |
| 20260507015434 | 58 | 103 | 2.6 | 9.6 | 0.00 | 0.00 | 0.00 | 59 | 1016.3 |
| 20260507015224 | 58 | 62 | 5.2 | 9.6 | 0.00 | 0.00 | 0.00 | 59 | 1016.5 |
| 20260507014509 | 58 | 80 | 3.5 | 9.6 | 0.00 | 0.00 | 0.00 | 59 | 1016.3 |
| 20260507014009 | 58 | 54 | 8.7 | 8.7 | 0.00 | 0.00 | 0.00 | 58 | 1016.3 |
| 20260507014005 | 58 | 50 | 7.0 | 7.0 | 0.00 | 0.00 | 0.00 | 58 | 1016.3 |
| 20260507013528 | 58 | 94 | 3.5 | 7.0 | 0.00 | 0.00 | 0.00 | 58 | 1016.3 |
| 20260507013521 | 58 | 79 | 2.6 | 7.0 | 0.00 | 0.00 | 0.00 | 58 | 1016.3 |
| 20260507013101 | 59 | 85 | 2.6 | 6.1 | 0.00 | 0.00 | 0.00 | 58 | 1016.3 |
| 20260507013024 | 59 | 95 | 3.5 | 7.0 | 0.00 | 0.00 | 0.00 | 58 | 1016.3 |
| 20260507013020 | 59 | 100 | 2.6 | 7.0 | 0.00 | 0.00 | 0.00 | 58 | 1016.3 |
| 20260507012519 | 59 | 58 | 3.5 | 6.1 | 0.00 | 0.00 | 0.00 | 58 | 1016.3 |
| 20260507012009 | 59 | 76 | 1.7 | 6.1 | 0.00 | 0.00 | 0.00 | 57 | 1016.3 |
| 20260507012003 | 59 | 50 | 1.7 | 6.1 | 0.00 | 0.00 | 0.00 | 57 | 1016.3 |
| 20260507011911 | 59 | 93 | 1.7 | 6.1 | 0.00 | 0.00 | 0.00 | 57 | 1016.2 |
| 20260507011716 | 59 | 60 | 2.6 | 6.1 | 0.00 | 0.00 | 0.00 | 57 | 1016.2 |
| 20260507011033 | 59 | 99 | 3.5 | 10.4 | 0.00 | 0.00 | 0.00 | 57 | 1016.3 |
| 20260507011018 | 59 | 70 | 3.5 | 10.4 | 0.00 | 0.00 | 0.00 | 57 | 1016.3 |
| 20260507010515 | 60 | 100 | 1.7 | 10.4 | 0.00 | 0.00 | 0.00 | 56 | 1016.3 |
| 20260507010458 | 60 | 72 | 3.5 | 10.4 | 0.00 | 0.00 | 0.00 | 56 | 1016.3 |
| 20260507010010 | 60 | 78 | 1.7 | 7.8 | 0.00 | 0.00 | 0.00 | 56 | 1016.3 |
| 20260507005954 | 60 | 96 | 2.6 | 7.8 | 0.00 | 0.00 | 0.00 | 56 | 1016.3 |
| 20260507005510 | 60 | 70 | 2.6 | 6.1 | 0.00 | 0.00 | 0.00 | 56 | 1016.3 |
| 20260507005500 | 60 | 51 | 1.7 | 6.1 | 0.00 | 0.00 | 0.00 | 56 | 1016.3 |
| 20260507005005 | 60 | 85 | 3.5 | 7.0 | 0.00 | 0.00 | 0.00 | 55 | 1015.8 |
| 20260507004954 | 60 | 64 | 1.7 | 7.0 | 0.00 | 0.00 | 0.00 | 55 | 1015.8 |
| 20260507004714 | 60 | 84 | 2.6 | 8.7 | 0.00 | 0.00 | 0.00 | 53 | 1015.8 |
| 20260507004608 | 60 | 61 | 1.7 | 7.8 | 0.00 | 0.00 | 0.00 | 54 | 1016.0 |
| 20260507004559 | 60 | 63 | 3.5 | 7.8 | 0.00 | 0.00 | 0.00 | 54 | 1016.0 |
| 20260507004137 | 60 | 93 | 3.5 | 8.7 | 0.00 | 0.00 | 0.00 | 54 | 1015.9 |
| 20260507004127 | 60 | 88 | 3.5 | 8.7 | 0.00 | 0.00 | 0.00 | 54 | 1015.9 |
| 20260507003449 | 60 | 77 | 3.5 | 8.7 | 0.00 | 0.00 | 0.00 | 53 | 1015.8 |
| 20260507003003 | 61 | 89 | 2.6 | 12.2 | 0.00 | 0.00 | 0.00 | 54 | 1015.9 |
| 20260507002948 | 61 | 15 | 0.0 | 12.2 | 0.00 | 0.00 | 0.00 | 54 | 1015.9 |
| 20260507002936 | 61 | 92 | 3.5 | 12.2 | 0.00 | 0.00 | 0.00 | 52 | 1015.9 |
| 20260507002449 | 61 | 61 | 5.2 | 12.2 | 0.00 | 0.00 | 0.00 | 52 | 1015.9 |
| 20260507002004 | 61 | 52 | 7.8 | 11.3 | 0.00 | 0.00 | 0.00 | 51 | 1015.7 |
| 20260507001949 | 61 | 51 | 9.6 | 11.3 | 0.00 | 0.00 | 0.00 | 51 | 1015.7 |
| 20260507001501 | 62 | 40 | 4.3 | 11.3 | 0.00 | 0.00 | 0.00 | 51 | 1015.6 |
| 20260507001448 | 62 | 51 | 7.0 | 11.3 | 0.00 | 0.00 | 0.00 | 51 | 1015.6 |
| 20260507001340 | 61 | 58 | 5.2 | 7.8 | 0.00 | 0.00 | 0.00 | 52 | 1015.6 |
| 20260507000949 | 61 | 74 | 4.3 | 7.8 | 0.00 | 0.00 | 0.00 | 52 | 1015.6 |
| 20260507000511 | 62 | 43 | 5.2 | 11.3 | 0.00 | 0.00 | 0.00 | 52 | 1015.6 |
| 20260507000502 | 62 | 65 | 4.3 | 11.3 | 0.00 | 0.00 | 0.00 | 52 | 1015.6 |
| 20260507000003 | 62 | 40 | 3.5 | 11.3 | 0.00 | 0.00 | 0.00 | 52 | 1015.6 |
| 20260506235950 | 62 | 0 | 2.6 | 11.3 | 0.00 | 0.00 | 0.00 | 51 | 1015.6 |
| 20260506235600 | 63 | 46 | 7.0 | 13.9 | 0.00 | 0.00 | 0.00 | 49 | 1015.2 |
| 20260506235549 | 62 | 67 | 5.2 | 12.2 | 0.00 | 0.00 | 0.00 | 51 | 1015.4 |
| 20260506235537 | 62 | 98 | 7.8 | 13.9 | 0.00 | 0.00 | 0.00 | 50 | 1015.3 |
| 20260506235517 | 62 | 60 | 9.6 | 11.3 | 0.00 | 0.00 | 0.00 | 51 | 1015.4 |
| 20260506235506 | 62 | 58 | 7.0 | 11.3 | 0.00 | 0.00 | 0.00 | 50 | 1015.4 |
| 20260506235048 | 62 | 52 | 6.1 | 12.2 | 0.00 | 0.00 | 0.00 | 50 | 1015.4 |
| 20260506234848 | 62 | 63 | 2.6 | 13.9 | 0.00 | 0.00 | 0.00 | 50 | 1015.3 |
| 20260506233949 | 63 | 49 | 3.5 | 13.9 | 0.00 | 0.00 | 0.00 | 49 | 1015.2 |
| 20260506233850 | 62 | 103 | 1.7 | 12.2 | 0.00 | 0.00 | 0.00 | 50 | 1015.4 |
| 20260506233451 | 62 | 91 | 10.4 | 12.2 | 0.00 | 0.00 | 0.00 | 50 | 1015.4 |
| 20260506233350 | 63 | 100 | 9.6 | 11.3 | 0.00 | 0.00 | 0.00 | 49 | 1015.4 |
| 20260506232949 | 63 | 88 | 4.3 | 9.6 | 0.00 | 0.00 | 0.00 | 49 | 1015.4 |
| 20260506232502 | 64 | 110 | 5.2 | 11.3 | 0.00 | 0.00 | 0.00 | 49 | 1015.2 |
| 20260506232450 | 64 | 86 | 4.3 | 11.3 | 0.00 | 0.00 | 0.00 | 49 | 1015.2 |
| 20260506232339 | 64 | 115 | 4.3 | 11.3 | 0.00 | 0.00 | 0.00 | 49 | 1015.2 |
| 20260506232208 | 64 | 40 | 4.3 | 11.3 | 0.00 | 0.00 | 0.00 | 49 | 1015.2 |
| 20260506231846 | 63 | 59 | 8.7 | 11.3 | 0.00 | 0.00 | 0.00 | 49 | 1015.1 |
| 20260506231710 | 63 | 47 | 6.1 | 11.3 | 0.00 | 0.00 | 0.00 | 49 | 1015.1 |
| 20260506231001 | 63 | 100 | 4.3 | 8.7 | 0.00 | 0.00 | 0.00 | 49 | 1015.1 |
| 20260506230948 | 63 | 78 | 5.2 | 8.7 | 0.00 | 0.00 | 0.00 | 49 | 1015.1 |
| 20260506230510 | 63 | 110 | 4.3 | 12.2 | 0.00 | 0.00 | 0.00 | 49 | 1015.0 |
| 20260506230458 | 63 | 77 | 6.1 | 12.2 | 0.00 | 0.00 | 0.00 | 48 | 1015.0 |
| 20260506230339 | 63 | 91 | 4.3 | 12.2 | 0.00 | 0.00 | 0.00 | 50 | 1015.0 |
| 20260506230205 | 63 | 83 | 2.6 | 12.2 | 0.00 | 0.00 | 0.00 | 50 | 1015.0 |
| 20260506225502 | 62 | 101 | 5.2 | 12.2 | 0.00 | 0.00 | 0.00 | 50 | 1015.1 |
| 20260506225449 | 62 | 80 | 5.2 | 12.2 | 0.00 | 0.00 | 0.00 | 50 | 1015.1 |
| 20260506225259 | 62 | 91 | 6.1 | 17.4 | 0.00 | 0.00 | 0.00 | 52 | 1015.0 |
| 20260506225138 | 63 | 98 | 5.2 | 12.2 | 0.00 | 0.00 | 0.00 | 50 | 1015.2 |
| 20260506225129 | 63 | 135 | 2.6 | 12.2 | 0.00 | 0.00 | 0.00 | 50 | 1015.2 |
| 20260506224448 | 62 | 40 | 4.3 | 17.4 | 0.00 | 0.00 | 0.00 | 52 | 1015.0 |
| 20260506224002 | 63 | 72 | 6.1 | 17.4 | 0.00 | 0.00 | 0.00 | 51 | 1014.9 |
| 20260506223948 | 63 | 83 | 11.3 | 17.4 | 0.00 | 0.00 | 0.00 | 51 | 1014.9 |
| 20260506223838 | 63 | 109 | 5.2 | 15.6 | 0.00 | 0.00 | 0.00 | 51 | 1014.7 |
| 20260506223707 | 63 | 158 | 7.0 | 15.6 | 0.00 | 0.00 | 0.00 | 51 | 1014.7 |
| 20260506223348 | 62 | 61 | 2.6 | 15.6 | 0.00 | 0.00 | 0.00 | 51 | 1014.8 |
| 20260506223209 | 62 | 95 | 7.0 | 15.6 | 0.00 | 0.00 | 0.00 | 51 | 1014.8 |
| 20260506222502 | 64 | 49 | 7.0 | 14.8 | 0.00 | 0.00 | 0.00 | 49 | 1014.8 |
| 20260506222449 | 64 | 70 | 5.2 | 14.8 | 0.00 | 0.00 | 0.00 | 49 | 1014.8 |
| 20260506222351 | 64 | 104 | 3.5 | 10.4 | 0.00 | 0.00 | 0.00 | 50 | 1014.7 |
| 20260506222209 | 63 | 11 | 1.7 | 13.0 | 0.00 | 0.00 | 0.00 | 50 | 1014.8 |
| 20260506222158 | 63 | 51 | 4.3 | 13.0 | 0.00 | 0.00 | 0.00 | 49 | 1014.8 |
| 20260506221502 | 64 | 83 | 5.2 | 10.4 | 0.00 | 0.00 | 0.00 | 51 | 1014.7 |
| 20260506221002 | 63 | 68 | 5.2 | 13.0 | 0.00 | 0.00 | 0.00 | 52 | 1014.7 |
| 20260506220948 | 63 | 104 | 3.5 | 13.9 | 0.00 | 0.00 | 0.00 | 52 | 1014.7 |
| 20260506220900 | 61 | 34 | 4.3 | 16.5 | 0.00 | 0.00 | 0.00 | 53 | 1014.5 |
| 20260506220707 | 61 | 100 | 4.3 | 16.5 | 0.00 | 0.00 | 0.00 | 53 | 1014.5 |
| 20260506220012 | 62 | 41 | 13.9 | 16.5 | 0.00 | 0.00 | 0.00 | 52 | 1014.8 |
| 20260506215949 | 62 | 97 | 4.3 | 16.5 | 0.00 | 0.00 | 0.00 | 53 | 1014.8 |
| 20260506215507 | 62 | 117 | 3.5 | 14.8 | 0.00 | 0.00 | 0.00 | 54 | 1014.6 |
| 20260506215450 | 62 | 109 | 5.2 | 14.8 | 0.00 | 0.00 | 0.00 | 54 | 1014.6 |
| 20260506215006 | 62 | 94 | 10.4 | 14.8 | 0.00 | 0.00 | 0.00 | 53 | 1014.9 |
| 20260506214953 | 62 | 116 | 7.0 | 14.8 | 0.00 | 0.00 | 0.00 | 53 | 1014.9 |
| 20260506214837 | 63 | 81 | 5.2 | 10.4 | 0.00 | 0.00 | 0.00 | 52 | 1014.7 |
| 20260506214708 | 63 | 93 | 7.8 | 10.4 | 0.00 | 0.00 | 0.00 | 52 | 1014.7 |
| 20260506214002 | 62 | 76 | 5.2 | 13.9 | 0.00 | 0.00 | 0.00 | 53 | 1014.8 |
| 20260506213949 | 62 | 76 | 5.2 | 14.8 | 0.00 | 0.00 | 0.00 | 53 | 1014.8 |
| 20260506213847 | 61 | 60 | 5.2 | 14.8 | 0.00 | 0.00 | 0.00 | 55 | 1014.9 |
| 20260506213449 | 61 | 69 | 6.1 | 14.8 | 0.00 | 0.00 | 0.00 | 55 | 1014.9 |
| 20260506213002 | 61 | 45 | 12.2 | 14.8 | 0.00 | 0.00 | 0.00 | 56 | 1015.0 |
| 20260506212949 | 61 | 48 | 3.5 | 10.4 | 0.00 | 0.00 | 0.00 | 56 | 1015.0 |
| 20260506212711 | 61 | 73 | 3.5 | 13.0 | 0.00 | 0.00 | 0.00 | 56 | 1015.1 |
| 20260506212702 | 61 | 83 | 11.3 | 13.0 | 0.00 | 0.00 | 0.00 | 55 | 1015.1 |
| 20260506212534 | 61 | 73 | 6.1 | 14.8 | 0.00 | 0.00 | 0.00 | 55 | 1014.9 |
| 20260506212524 | 61 | 108 | 5.2 | 14.8 | 0.00 | 0.00 | 0.00 | 55 | 1014.9 |
| 20260506212102 | 61 | 49 | 7.0 | 14.8 | 0.00 | 0.00 | 0.00 | 56 | 1015.1 |
| 20260506212050 | 61 | 77 | 6.1 | 14.8 | 0.00 | 0.00 | 0.00 | 56 | 1015.1 |
| 20260506211847 | 61 | 73 | 2.6 | 13.0 | 0.00 | 0.00 | 0.00 | 56 | 1015.1 |
| 20260506211207 | 61 | 58 | 9.6 | 13.0 | 0.00 | 0.00 | 0.00 | 55 | 1015.1 |
| 20260506210501 | 61 | 101 | 2.6 | 13.0 | 0.00 | 0.00 | 0.00 | 56 | 1015.1 |
| 20260506210448 | 61 | 87 | 5.2 | 13.0 | 0.00 | 0.00 | 0.00 | 55 | 1015.1 |
| 20260506210004 | 61 | 75 | 5.2 | 14.8 | 0.00 | 0.00 | 0.00 | 56 | 1015.2 |
| 20260506205950 | 61 | 46 | 4.3 | 14.8 | 0.00 | 0.00 | 0.00 | 57 | 1015.2 |
| 20260506205501 | 61 | 54 | 6.1 | 14.8 | 0.00 | 0.00 | 0.00 | 55 | 1015.1 |
| 20260506205450 | 61 | 47 | 7.8 | 14.8 | 0.00 | 0.00 | 0.00 | 55 | 1015.1 |
| 20260506205346 | 62 | 133 | 3.5 | 11.3 | 0.00 | 0.00 | 0.00 | 55 | 1015.2 |
| 20260506205207 | 62 | 50 | 8.7 | 11.3 | 0.00 | 0.00 | 0.00 | 55 | 1015.2 |
| 20260506204502 | 61 | 44 | 5.2 | 12.2 | 0.00 | 0.00 | 0.00 | 55 | 1015.2 |
| 20260506204449 | 61 | 88 | 4.3 | 12.2 | 0.00 | 0.00 | 0.00 | 56 | 1015.2 |
| 20260506204004 | 60 | 55 | 5.2 | 13.0 | 0.00 | 0.00 | 0.00 | 57 | 1015.4 |
| 20260506203950 | 60 | 72 | 7.0 | 13.0 | 0.00 | 0.00 | 0.00 | 57 | 1015.4 |
| 20260506203501 | 60 | 50 | 10.4 | 13.0 | 0.00 | 0.00 | 0.00 | 57 | 1015.5 |
| 20260506203449 | 60 | 92 | 4.3 | 13.0 | 0.00 | 0.00 | 0.00 | 57 | 1015.5 |
| 20260506203348 | 60 | 93 | 2.6 | 13.0 | 0.00 | 0.00 | 0.00 | 57 | 1015.4 |
| 20260506203207 | 60 | 93 | 5.2 | 13.0 | 0.00 | 0.00 | 0.00 | 57 | 1015.4 |
| 20260506202502 | 61 | 85 | 7.8 | 12.2 | 0.00 | 0.00 | 0.00 | 56 | 1015.4 |
| 20260506202448 | 61 | 92 | 5.2 | 12.2 | 0.00 | 0.00 | 0.00 | 56 | 1015.4 |
| 20260506202349 | 61 | 40 | 8.7 | 13.9 | 0.00 | 0.00 | 0.00 | 55 | 1015.3 |
| 20260506202207 | 61 | 67 | 5.2 | 13.9 | 0.00 | 0.00 | 0.00 | 56 | 1015.3 |
| 20260506201504 | 61 | 60 | 7.8 | 14.8 | 0.00 | 0.00 | 0.00 | 55 | 1015.5 |
| 20260506201452 | 61 | 66 | 10.4 | 14.8 | 0.00 | 0.00 | 0.00 | 56 | 1015.5 |
| 20260506201356 | 61 | 59 | 6.1 | 14.8 | 0.00 | 0.00 | 0.00 | 56 | 1015.3 |
| 20260506201208 | 61 | 53 | 2.6 | 14.8 | 0.00 | 0.00 | 0.00 | 56 | 1015.3 |
| 20260506200502 | 60 | 17 | 3.5 | 13.0 | 0.00 | 0.00 | 0.00 | 56 | 1015.3 |
| 20260506200449 | 60 | 101 | 1.7 | 13.0 | 0.00 | 0.00 | 0.00 | 56 | 1015.3 |
| 20260506200005 | 60 | 58 | 3.5 | 17.4 | 0.00 | 0.00 | 0.00 | 56 | 1015.5 |
| 20260506195949 | 60 | 30 | 4.3 | 17.4 | 0.00 | 0.00 | 0.00 | 56 | 1015.5 |
| 20260506195927 | 60 | 17 | 7.8 | 17.4 | 0.00 | 0.00 | 0.00 | 56 | 1015.5 |
| 20260506195448 | 60 | 17 | 5.2 | 17.4 | 0.00 | 0.00 | 0.00 | 56 | 1015.5 |
| 20260506195311 | 61 | 54 | 9.6 | 15.6 | 0.00 | 0.00 | 0.00 | 55 | 1015.4 |
| 20260506195143 | 62 | 77 | 1.7 | 14.8 | 0.00 | 0.00 | 0.00 | 55 | 1015.4 |
| 20260506195132 | 62 | 36 | 3.5 | 14.8 | 0.00 | 0.00 | 0.00 | 55 | 1015.4 |
| 20260506194710 | 61 | 82 | 5.2 | 15.6 | 0.00 | 0.00 | 0.00 | 55 | 1015.4 |
| 20260506194002 | 61 | 50 | 3.5 | 15.6 | 0.00 | 0.00 | 0.00 | 55 | 1015.2 |
| 20260506193949 | 61 | 101 | 5.2 | 15.6 | 0.00 | 0.00 | 0.00 | 56 | 1015.2 |
| 20260506193851 | 61 | 27 | 3.5 | 14.8 | 0.00 | 0.00 | 0.00 | 55 | 1015.4 |
| 20260506193451 | 61 | 14 | 2.6 | 14.8 | 0.00 | 0.00 | 0.00 | 55 | 1015.4 |
| 20260506193002 | 61 | 11 | 6.1 | 12.2 | 0.00 | 0.00 | 0.00 | 54 | 1015.4 |
| 20260506192950 | 61 | 33 | 5.2 | 12.2 | 0.00 | 0.00 | 0.00 | 54 | 1015.4 |
| 20260506192916 | 60 | 94 | 3.5 | 14.8 | 0.00 | 0.00 | 0.00 | 55 | 1015.6 |
| 20260506192732 | 60 | 59 | 6.1 | 14.8 | 0.00 | 0.00 | 0.00 | 55 | 1015.6 |
| 20260506192348 | 61 | 113 | 8.7 | 18.2 | 0.00 | 0.00 | 0.00 | 54 | 1015.7 |
| 20260506191950 | 61 | 88 | 6.1 | 18.2 | 0.00 | 0.00 | 0.00 | 55 | 1015.7 |
| 20260506191851 | 61 | 96 | 10.4 | 18.2 | 0.00 | 0.00 | 0.00 | 55 | 1015.6 |
| 20260506191448 | 61 | 91 | 5.2 | 18.2 | 0.00 | 0.00 | 0.00 | 55 | 1015.6 |
| 20260506191101 | 61 | 185 | 2.6 | 16.5 | 0.00 | 0.00 | 0.00 | 53 | 1015.6 |
| 20260506191019 | 62 | 115 | 8.7 | 12.2 | 0.00 | 0.00 | 0.00 | 53 | 1015.6 |
| 20260506191008 | 62 | 61 | 1.7 | 10.4 | 0.00 | 0.00 | 0.00 | 54 | 1015.6 |
| 20260506190621 | 60 | 92 | 3.5 | 13.9 | 0.00 | 0.00 | 0.00 | 55 | 1015.6 |
| 20260506190534 | 62 | 174 | 2.6 | 13.9 | 0.00 | 0.00 | 0.00 | 53 | 1015.7 |
| 20260506190524 | 62 | 142 | 3.5 | 13.9 | 0.00 | 0.00 | 0.00 | 53 | 1015.7 |
| 20260506190106 | 60 | 58 | 3.5 | 13.9 | 0.00 | 0.00 | 0.00 | 54 | 1015.6 |
| 20260506185740 | 60 | 95 | 8.7 | 18.2 | 0.00 | 0.00 | 0.00 | 55 | 1015.7 |
| 20260506185629 | 61 | 87 | 3.5 | 18.2 | 0.00 | 0.00 | 0.00 | 54 | 1015.5 |
| 20260506185614 | 61 | 124 | 4.3 | 18.2 | 0.00 | 0.00 | 0.00 | 54 | 1015.5 |
| 20260506185129 | 60 | 57 | 4.3 | 18.2 | 0.00 | 0.00 | 0.00 | 56 | 1015.7 |
| 20260506184450 | 61 | 144 | 5.2 | 16.5 | 0.00 | 0.00 | 0.00 | 52 | 1015.6 |
| 20260506184050 | 61 | 147 | 3.5 | 16.5 | 0.00 | 0.00 | 0.00 | 53 | 1016.2 |
| 20260506184040 | 60 | 84 | 3.5 | 18.2 | 0.00 | 0.00 | 0.00 | 55 | 1016.2 |
| 20260506184032 | 60 | 62 | 7.0 | 15.6 | 0.00 | 0.00 | 0.00 | 54 | 1016.0 |
| 20260506184016 | 61 | 142 | 6.1 | 16.5 | 0.00 | 0.00 | 0.00 | 53 | 1016.2 |
| 20260506184006 | 61 | 87 | 7.8 | 18.2 | 0.00 | 0.00 | 0.00 | 53 | 1015.8 |
| 20260506183954 | 61 | 92 | 14.8 | 18.2 | 0.00 | 0.00 | 0.00 | 53 | 1015.8 |
| 20260506183746 | 60 | 22 | 5.2 | 18.2 | 0.00 | 0.00 | 0.00 | 55 | 1016.2 |
| 20260506183113 | 61 | 84 | 9.6 | 13.9 | 0.00 | 0.00 | 0.00 | 53 | 1015.8 |
| 20260506183102 | 61 | 84 | 9.6 | 13.9 | 0.00 | 0.00 | 0.00 | 53 | 1015.8 |
| 20260506182645 | 60 | 53 | 4.3 | 15.6 | 0.00 | 0.00 | 0.00 | 54 | 1016.0 |
| 20260506181501 | 60 | 102 | 7.0 | 16.5 | 0.00 | 0.00 | 0.00 | 55 | 1016.2 |
| 20260506181449 | 60 | 156 | 7.8 | 16.5 | 0.00 | 0.00 | 0.00 | 55 | 1016.2 |
| 20260506181002 | 60 | 108 | 4.3 | 16.5 | 0.00 | 0.00 | 0.00 | 54 | 1016.3 |
| 20260506180937 | 60 | 75 | 9.6 | 15.6 | 0.00 | 0.00 | 0.00 | 53 | 1016.3 |
| 20260506180502 | 60 | 81 | 11.3 | 20.0 | 0.00 | 0.00 | 0.00 | 54 | 1016.6 |
| 20260506180436 | 59 | 109 | 2.6 | 20.0 | 0.00 | 0.00 | 0.00 | 54 | 1016.6 |
| 20260506180001 | 59 | 121 | 4.3 | 20.0 | 0.00 | 0.00 | 0.00 | 54 | 1016.5 |
| 20260506175936 | 59 | 60 | 7.8 | 20.0 | 0.00 | 0.00 | 0.00 | 53 | 1016.5 |
| 20260506175851 | 59 | 96 | 7.8 | 18.2 | 0.00 | 0.00 | 0.00 | 54 | 1016.6 |
| 20260506175437 | 59 | 79 | 7.0 | 18.2 | 0.00 | 0.00 | 0.00 | 54 | 1016.6 |
| 20260506175002 | 59 | 91 | 6.1 | 18.2 | 0.00 | 0.00 | 0.00 | 55 | 1016.6 |
| 20260506174937 | 59 | 79 | 4.3 | 18.2 | 0.00 | 0.00 | 0.00 | 54 | 1016.6 |
| 20260506174502 | 59 | 87 | 9.6 | 18.2 | 0.00 | 0.00 | 0.00 | 54 | 1016.7 |
| 20260506174437 | 59 | 105 | 12.2 | 18.2 | 0.00 | 0.00 | 0.00 | 55 | 1016.7 |
| 20260506174003 | 60 | 87 | 10.4 | 14.8 | 0.00 | 0.00 | 0.00 | 53 | 1016.7 |
| 20260506173938 | 60 | 113 | 5.2 | 14.8 | 0.00 | 0.00 | 0.00 | 55 | 1016.7 |
| 20260506173502 | 60 | 94 | 6.1 | 18.2 | 0.00 | 0.00 | 0.00 | 53 | 1016.7 |
| 20260506173438 | 60 | 82 | 7.0 | 18.2 | 0.00 | 0.00 | 0.00 | 54 | 1016.7 |
| 20260506173002 | 59 | 122 | 7.0 | 18.2 | 0.00 | 0.00 | 0.00 | 54 | 1016.5 |
| 20260506172937 | 59 | 188 | 4.3 | 18.2 | 0.00 | 0.00 | 0.00 | 56 | 1016.5 |
| 20260506172502 | 58 | 127 | 7.0 | 16.5 | 0.00 | 0.00 | 0.00 | 55 | 1016.5 |
| 20260506172437 | 58 | 114 | 7.0 | 16.5 | 0.00 | 0.00 | 0.00 | 54 | 1016.5 |
| 20260506172002 | 59 | 107 | 11.3 | 15.6 | 0.00 | 0.00 | 0.00 | 53 | 1016.7 |
| 20260506171937 | 60 | 91 | 11.3 | 15.6 | 0.00 | 0.00 | 0.00 | 54 | 1016.7 |
| 20260506171824 | 57 | 93 | 5.2 | 16.5 | 0.00 | 0.00 | 0.00 | 57 | 1017.1 |
| 20260506171814 | 58 | 43 | 7.8 | 17.4 | 0.00 | 0.00 | 0.00 | 57 | 1016.9 |
| 20260506171640 | 58 | 162 | 4.3 | 17.4 | 0.00 | 0.00 | 0.00 | 56 | 1016.5 |
| 20260506171626 | 58 | 111 | 5.2 | 17.4 | 0.00 | 0.00 | 0.00 | 56 | 1016.5 |
| 20260506170957 | 58 | 87 | 10.4 | 20.9 | 0.00 | 0.00 | 0.00 | 54 | 1016.8 |
| 20260506170941 | 58 | 131 | 4.3 | 17.4 | 0.00 | 0.00 | 0.00 | 57 | 1016.9 |
| 20260506170519 | 58 | 123 | 2.6 | 20.9 | 0.00 | 0.00 | 0.00 | 54 | 1016.8 |
| 20260506170139 | 56 | 107 | 5.2 | 22.6 | 0.00 | 0.00 | 0.00 | 59 | 1016.8 |
| 20260506170127 | 56 | 81 | 10.4 | 22.6 | 0.00 | 0.00 | 0.00 | 58 | 1016.9 |
| 20260506170048 | 57 | 124 | 6.1 | 20.9 | 0.00 | 0.00 | 0.00 | 57 | 1016.8 |
| 20260506170034 | 57 | 107 | 11.3 | 20.9 | 0.00 | 0.00 | 0.00 | 57 | 1016.8 |
| 20260506165610 | 56 | 99 | 11.3 | 22.6 | 0.00 | 0.00 | 0.00 | 58 | 1016.8 |
| 20260506165411 | 56 | 103 | 13.0 | 22.6 | 0.00 | 0.00 | 0.00 | 58 | 1016.9 |
| 20260506164701 | 57 | 88 | 14.8 | 18.2 | 0.00 | 0.00 | 0.00 | 57 | 1017.1 |
| 20260506164001 | 57 | 125 | 7.8 | 18.2 | 0.00 | 0.00 | 0.00 | 57 | 1017.0 |
| 20260506163937 | 56 | 134 | 7.8 | 18.2 | 0.00 | 0.00 | 0.00 | 59 | 1017.0 |
| 20260506163834 | 56 | 111 | 10.4 | 21.7 | 0.00 | 0.00 | 0.00 | 58 | 1016.9 |
| 20260506163659 | 56 | 92 | 7.0 | 19.1 | 0.00 | 0.00 | 0.00 | 58 | 1016.9 |
| 20260506163001 | 56 | 106 | 7.0 | 21.7 | 0.00 | 0.00 | 0.00 | 60 | 1017.0 |
| 20260506162936 | 56 | 96 | 6.1 | 21.7 | 0.00 | 0.00 | 0.00 | 59 | 1017.0 |
| 20260506162503 | 55 | 92 | 15.6 | 21.7 | 0.00 | 0.00 | 0.00 | 60 | 1017.0 |
| 20260506162439 | 55 | 80 | 7.8 | 20.9 | 0.00 | 0.00 | 0.00 | 59 | 1017.0 |
| 20260506162005 | 55 | 108 | 3.5 | 21.7 | 0.00 | 0.00 | 0.00 | 61 | 1017.1 |
| 20260506161950 | 55 | 93 | 7.8 | 21.7 | 0.00 | 0.00 | 0.00 | 60 | 1017.1 |
| 20260506161501 | 55 | 128 | 9.6 | 21.7 | 0.00 | 0.00 | 0.00 | 60 | 1017.0 |
| 20260506161437 | 55 | 95 | 9.6 | 21.7 | 0.00 | 0.00 | 0.00 | 60 | 1017.0 |
| 20260506161003 | 55 | 81 | 9.6 | 21.7 | 0.00 | 0.00 | 0.00 | 61 | 1017.3 |
| 20260506160936 | 55 | 89 | 7.8 | 21.7 | 0.00 | 0.00 | 0.00 | 61 | 1017.3 |
| 20260506160824 | 54 | 100 | 10.4 | 20.9 | 0.00 | 0.00 | 0.00 | 65 | 1016.9 |
| 20260506160646 | 55 | 130 | 6.1 | 20.9 | 0.00 | 0.00 | 0.00 | 64 | 1017.0 |
| 20260506160630 | 55 | 118 | 7.0 | 20.9 | 0.00 | 0.00 | 0.00 | 63 | 1017.0 |
| 20260506160158 | 54 | 65 | 9.6 | 20.9 | 0.00 | 0.00 | 0.00 | 65 | 1016.9 |